TimeEST,TemperatureF,Dew PointF,Humidity,Sea Level PressureIn,VisibilityMPH,Wind Direction,Wind SpeedMPH,Gust SpeedMPH,PrecipitationIn,Events,Conditions,WindDirDegrees,DateUTC
12:58 AM,68.2,68.2,100,30.19,10.0,ESE,2.3,-,N/A,,Partly Cloudy,110,2013-12-07 05:58:00
1:58 AM,69.4,69.4,100,30.19,10.0,SSE,4.6,-,N/A,,Partly Cloudy,150,2013-12-07 06:58:00
2:58 AM,69.4,69.4,100,30.18,10.0,ESE,3.5,-,N/A,,Partly Cloudy,120,2013-12-07 07:58:00
3:58 AM,69.1,69.1,100,30.18,10.0,SE,4.6,-,N/A,,Clear,140,2013-12-07 08:58:00
4:58 AM,66.7,66.7,100,30.18,7.0,ESE,4.6,-,N/A,,Clear,110,2013-12-07 09:58:00
5:18 AM,66.2,66.2,100,30.17,1.8,SE,4.6,-,N/A,,Clear,130,2013-12-07 10:18:00
5:23 AM,66.2,66.2,100,30.17,1.0,SE,4.6,-,N/A,,Clear,130,2013-12-07 10:23:00
5:28 AM,66.2,66.2,100,30.18,0.5,SE,4.6,-,N/A,Fog,Fog,130,2013-12-07 10:28:00
5:33 AM,66.2,66.2,100,30.18,0.5,SE,4.6,-,N/A,Fog,Fog,130,2013-12-07 10:33:00
5:38 AM,66.2,66.2,100,30.18,0.8,ESE,3.5,-,N/A,,Clear,120,2013-12-07 10:38:00
5:43 AM,68.0,68.0,100,30.18,1.8,ESE,3.5,-,N/A,,Clear,120,2013-12-07 10:43:00
5:48 AM,68.0,68.0,100,30.18,3.0,ESE,2.3,-,N/A,,Clear,110,2013-12-07 10:48:00
5:58 AM,66.9,66.9,100,30.19,10.0,East,1.2,-,N/A,,Clear,100,2013-12-07 10:58:00
6:58 AM,65.1,65.1,100,30.22,10.0,East,2.3,-,N/A,,Clear,100,2013-12-07 11:58:00
7:58 AM,66.0,66.0,100,30.24,10.0,ESE,3.5,-,N/A,,Clear,120,2013-12-07 12:58:00
8:58 AM,70.9,70.2,98,30.25,10.0,SE,5.8,-,N/A,,Clear,140,2013-12-07 13:58:00
9:58 AM,74.7,70.3,86,30.25,10.0,SSE,6.9,-,N/A,,Clear,150,2013-12-07 14:58:00
10:58 AM,79.0,71.2,77,30.26,10.0,Variable,4.6,-,N/A,,Clear,0,2013-12-07 15:58:00
11:58 AM,81.9,71.4,70,30.24,10.0,SE,4.6,-,N/A,,Partly Cloudy,130,2013-12-07 16:58:00
12:58 PM,83.1,70.2,65,30.21,10.0,ENE,5.8,-,N/A,,Partly Cloudy,70,2013-12-07 17:58:00
1:58 PM,85.6,69.1,58,30.18,10.0,ESE,3.5,-,N/A,,Clear,120,2013-12-07 18:58:00
2:58 PM,84.4,68.7,59,30.16,10.0,Variable,4.6,-,N/A,,Clear,0,2013-12-07 19:58:00
3:58 PM,84.0,67.1,57,30.16,10.0,WNW,5.8,-,N/A,,Clear,290,2013-12-07 20:58:00
4:58 PM,82.8,68.2,61,30.17,10.0,West,3.5,-,N/A,,Clear,280,2013-12-07 21:58:00
5:58 PM,74.7,65.7,73,30.17,10.0,WNW,1.2,-,N/A,,Clear,290,2013-12-07 22:58:00
6:58 PM,68.5,65.8,91,30.19,10.0,West,5.8,-,N/A,,Clear,280,2013-12-07 23:58:00
7:58 PM,69.3,68.7,98,30.19,10.0,NW,5.8,-,N/A,,Clear,320,2013-12-08 00:58:00
8:58 PM,69.4,68.4,96,30.20,10.0,North,4.6,-,N/A,,Clear,350,2013-12-08 01:58:00
9:58 PM,66.2,65.5,98,30.21,10.0,NE,3.5,-,N/A,,Clear,40,2013-12-08 02:58:00
10:58 PM,65.3,64.8,98,30.22,10.0,East,5.8,-,N/A,,Clear,90,2013-12-08 03:58:00
11:58 PM,66.9,66.7,99,30.22,10.0,ENE,3.5,-,N/A,,Clear,60,2013-12-08 04:58:00